User: anonymous   Login
Location: Munkebjergskolens Observatorium
(55.3864°N, 10.3987°E)
Time: 04:40:40
(UTC+02:00)
Language:

JY1SAT - Orbit

View from above orbital plane
View from above orbital plane
View from above satellite
View from above satellite

Ground track
Ground track

The orbit data is extracted from the following two-line orbital elements,

1 43803U 18099AX  24107.40340684  .00015345  00000-0  10596-2 0  9999
2 43803  97.5253 167.4940 0011470 148.8702 211.3207 15.05798869293395
Epoch (UTC): 16 April 2024 09:40:54
Eccentricity: 0.0011470
inclination: 97.5253°
perigee height: 541 km
apogee height: 557 km
right ascension of ascending node: 167.4940°
argument of perigee: 148.8702°
revolutions per day: 15.05798869
mean anomaly at epoch: 211.3207°
orbit number at epoch: 29339

The dashed part of the orbit path shows where the satellite is in the earth's shadow,  

DLR